sat.trackr.live / text

‹ back to catalog

TJS-19

NORAD 63924 · 2025-097A

PAYLOAD ACTIVE UNKNOWN

§ Identity

Operator
Country
PRC
Launch date
2025-05-12
Launch site
XICLF
Launch vehicle
Mass (kg)
RCS (m²)

Purposes: comms

External: N2YO · Heavens-Above · Gunter

§ Orbital elements

Epoch: 2026-09-19T18:22:26.530176Z

Period
1,436.13 min
Inclination
3.1377°
Eccentricity
0.0006231
Mean motion
1.00269664 rev/d
Perigee alt
35,760.9 km
Apogee alt
35,813.5 km
Semi-major
42,165.3 km
B*
0.0000e+0
RAAN
319.1069°
Arg perigee
262.9703°
Mean anomaly
193.3536°
Rev number
509

§ Raw data

TJS-191 63924U 25097A   26262.76558484 -.00000281  00000+0  00000+0 0  99922 63924   3.1377 319.1069 0006231 262.9703 193.3536  1.00269664  5095

JSON: /api/v1/satellites/63924 · /tle

For live sub-satellite position, see the globe view (requires WebGL).

§ Visibility from observer

Set your observer location to see the next 7 days of passes ≥ 10°. The values pass through the URL so the page stays shareable.

No JS? Fill the form by hand. The geolocation button needs JavaScript.